All Spectrum Aviation - Van Nuys Airport - KVNY

HOME

Condor Squadron KVNY Webcam

Visit our Electronics Store

2018/11/18 02:51 KVNY 180251Z 00000KT 10SM CLR 17/10 A3001 RMK AO2 SLP160 T01720100 51009
LATEST VAN NUYS ATIS IN MP3!
Older ATIS Recordings

Van Nuys Tower recordings

NEW FEATURE: RECORDINGS WITH SILENCE REMOVED!

All in MP3 format. 1 hour long MP3s for each file, 119.3 file is tower only
scan file is 119.0 HELI, 121.7 GROUND, 120.2 TOWER EAST, 126.6 CLEARANCE, 460.525 and 453.375 OPS

Today (2018/11/18) and Yesterday (2018/11/17)